#timestamp,LO_Frequency,Hit,StdDev 
1458064815.7,286046991.4,N
1458064835.5,286046986.9,N
1458064855.4,286046990.1,N
1458064875.2,286046992.2,N
1458064895.0,286046991.3,N
1458064895.9,286046991.3,N
1458064915.8,286046993.0,N
1458064935.6,286046991.8,N
1458064955.4,286046991.2,N
1458064975.3,286046994.4,N
1458064995.1,286046994.1,N
1458064996.0,286046994.1,N
1458065015.8,286046992.9,N
1458065035.7,286046991.0,N
1458065055.5,286046991.5,N
1458065075.3,286046989.8,N
1458065095.2,286046987.0,N
1458065115.9,286046989.1,N
1458065135.7,286046990.5,N
1458065155.6,286046990.0,N
1458065175.4,286046991.4,N
1458065195.2,286046987.7,Y
1458065215.1,286046995.5,P
1458065216.0,286046995.5,P
1458065235.8,286046995.0,P
1458065255.6,286047001.2,N
1458065275.4,286046999.9,N
1458065295.3,286047000.3,N
1458065315.1,286046999.9,N
1458065335.8,286046999.9,N
1458065355.7,286046998.7,N
1458065375.5,286046997.6,N
1458065395.3,286046998.7,N
1458065415.2,286046996.8,N
1458065435.9,286047000.7,N
1458065455.7,286046999.2,N
1458065475.6,286046998.0,N
1458065495.4,286046995.0,N
1458065515.2,286046997.0,N
1458065535.0,286046999.3,N
1458065536.0,286046999.3,N
1458065555.8,286046997.5,N
1458065575.6,286046997.1,N
1458065595.4,286046997.4,N
1458065615.3,286046995.4,N
1458065635.1,286046997.1,N
1458065655.8,286046997.7,N
1458065675.7,286046997.3,N
1458065695.5,286046996.2,N
1458065715.3,286046996.8,N
1458065735.2,286046993.8,Y
1458065755.9,286046996.0,P
1458065775.7,286046995.9,P
1458065795.6,286046997.3,P
1458065815.4,286046995.2,Y
1458065835.2,286046995.5,P
1458065855.1,286046999.3,N
1458065856.0,286046999.3,N
1458065875.8,286046999.6,N
1458065895.6,286046996.7,N
1458065915.5,286046996.0,N
1458065935.3,286046995.4,N
1458065955.1,286046998.0,N
1458065975.9,286046994.4,Y
1458065995.7,286046995.5,P
1458066015.5,286046995.3,P
1458066035.4,286046999.2,N
1458066055.2,286046996.6,N
1458066075.0,286046995.4,Y
1458066075.9,286046995.4,P
1458066095.8,286046998.2,N
1458066115.6,286046999.6,N
1458066135.4,286046997.1,N
1458066155.3,286047000.8,N
1458066175.1,286046998.4,N
1458066176.0,286046998.4,N
1458066195.8,286046999.3,N
1458066215.7,286046998.2,N
1458066235.5,286047000.9,N
1458066255.3,286046996.6,N
1458066275.1,286046998.0,N
1458066295.9,286046993.8,Y
1458066315.7,286046995.5,P
1458066335.5,286046997.7,N
1458066355.4,286046994.9,P
1458066375.2,286046997.3,N
1458066395.0,286046997.7,N
1458066395.9,286046997.7,N
1458066415.8,286046997.8,N
1458066435.6,286046999.5,N
1458066455.4,286046996.5,N
1458066475.3,286046997.0,N
1458066495.1,286046997.2,N
1458066496.0,286046997.2,N
1458066515.8,286047000.3,N
1458066535.7,286047002.7,N
1458066555.5,286047004.4,N
1458066575.3,286047007.6,Y
1458066595.2,286047008.1,P
1458066615.9,286047006.5,N
1458066635.7,286047008.7,N
1458066655.6,286047010.6,N
1458066675.4,286047012.4,N
1458066695.2,286047011.5,N
1458066715.1,286047013.4,Y
1458066716.0,286047013.4,P
1458066735.8,286047006.1,N
1458066755.6,286047009.1,N
1458066775.5,286047006.1,N
1458066795.3,286047008.3,Y
1458066815.1,286047000.5,P
1458066835.9,286046999.4,N
1458066855.7,286046998.5,N
1458066875.5,286047002.0,N
1458066895.4,286047002.7,N
1458066915.2,286047002.7,N
1458066935.0,286046999.2,N
1458066935.9,286046999.2,N
1458066955.8,286047000.6,N
1458066975.6,286046998.3,N
1458066995.4,286046999.8,N
1458067015.2,286046997.4,N
1458067035.1,286046997.6,N
1458067036.0,286046997.6,N
1458067055.8,286046996.8,N
1458067075.6,286046998.0,N
1458067095.5,286046993.7,N
1458067115.3,286046997.2,N
1458067135.1,286046997.4,N
1458067155.9,286046999.5,N
1458067175.7,286046997.6,N
1458067195.5,286046997.7,N
1458067215.4,286046995.3,N
1458067235.2,286046994.2,N
1458067255.0,286046995.9,N
1458067255.9,286046995.9,N
1458067275.8,286046995.9,N
1458067295.6,286046993.8,N
1458067315.4,286046993.6,N
1458067335.2,286046996.3,N
1458067355.1,286046995.3,N
1458067356.0,286046995.3,N
1458067375.8,286046995.2,N
1458067395.6,286046995.6,N
1458067415.5,286046999.5,N
1458067435.3,286046999.2,N
1458067455.1,286046996.5,N
1458067475.9,286046998.9,N
1458067495.7,286046998.9,N
1458067515.5,286047000.2,N
1458067535.4,286047000.1,N
1458067555.2,286046997.0,N
1458067575.0,286046999.2,N
1458067575.9,286046999.2,N
1458067595.8,286046997.4,N
1458067615.6,286046997.6,N
1458067635.4,286046997.4,N
1458067655.3,286046997.9,N
1458067675.1,286046995.2,N
1458067676.0,286046995.2,N
1458067695.8,286046995.0,N
1458067715.6,286046999.4,N
1458067735.5,286046996.9,N
1458067755.3,286046996.8,N
1458067775.1,286046997.5,N
1458067795.9,286046996.0,N
1458067815.7,286046994.5,Y
1458067835.5,286046999.6,P
1458067855.4,286046995.0,P
1458067875.2,286046995.6,N
1458067895.0,286046995.7,N
1458067895.9,286046995.7,N
1458067915.8,286046994.8,Y
1458067935.6,286046999.6,P
1458067955.4,286046997.7,N
1458067975.3,286046995.9,P
1458067995.1,286046993.1,Y
1458068015.8,286046995.1,P
1458068035.7,286046995.9,P
1458068055.5,286046997.9,N
1458068075.3,286046997.3,N
1458068095.2,286046997.9,N
1458068115.9,286046996.5,Y
1458068135.7,286047004.3,P
1458068155.6,286047001.7,N
1458068175.4,286047001.1,N
1458068195.2,286046998.0,N
1458068215.1,286046996.3,N
1458068216.0,286046996.3,N
1458068235.8,286046995.9,N
1458068255.6,286046994.7,N
1458068275.5,286046997.9,N
1458068295.3,286046995.3,N
1458068315.1,286046991.7,N
1458068335.9,286046992.9,N
1458068355.7,286046994.3,N
1458068375.5,286046993.6,N
1458068395.3,286046995.8,N
